Location: Newark
(50.0953°N, 2.1719°E)
Time: 19:28:21
(UTC+00:00)

N. Korean satellite - Pass Details

Date: 27 January 2020
Orbit: 456 x 505 km, 97.2° (Epoch: 22 February)

Event Time Altitude Azimuth Distance (km) Brightness Sun altitude
Rises 04:50:36 0° 26° (NNE) 2,544 10.6 -25.8°
Reaches altitude 10° 04:53:06 10° 45° (NE) 1,669 9.8 -25.4°
Maximum altitude 04:55:45 19° 93° (E) 1,204 9.4 -25.0°
Drops below altitude 10° 04:58:25 10° 140° (SE) 1,678 9.8 -24.6°
Sets 05:00:56 0° 159° (SSE) 2,564 10.5 -24.2°
